Location: Vienna
(48.2082°N, 16.3738°E)
Time: 19:13:03
(UTC+01:00)

ISS - Visible Passes

Search period start: 21 February 2019 00:00
Search period end: 03 March 2019 00:00
Orbit: 403 x 411 km, 51.6° (Epoch: 22 February)

Date Brightness Start Highest point End Pass type
(mag) Time Alt. Az. Time Alt. Az. Time Alt. Az.
24 Feb -1.3 05:43:22 10° S 05:45:54 21° SE 05:48:25 10° E visible
25 Feb -0.9 04:53:07 10° SSE 04:54:39 13° SE 04:56:11 10° ESE visible
26 Feb -2.7 05:36:08 10° SW 05:39:15 41° SSE 05:42:21 10° ENE visible
27 Feb -2.0 04:46:53 22° S 04:47:52 26° SE 04:50:39 10° E visible
28 Feb -0.9 03:57:39 14° ESE 03:57:39 14° ESE 03:58:39 10° E visible
28 Feb -3.8 05:30:22 18° WSW 05:32:40 79° SSE 05:35:56 10° ENE visible
01 Mar -3.3 04:41:01 50° SSE 04:41:11 51° SSE 04:44:23 10° ENE visible
02 Mar -1.0 03:51:35 18° E 03:51:35 18° E 03:52:43 10° E visible
02 Mar -3.7 05:24:17 23° W 05:26:09 64° NNW 05:29:25 10° ENE visible
